Oxford, AL

8:03 AM CST on January 24, 2017 (GMT -0600)
Anniston Metro

Weather History for KANB - February, 2014

Change the Weather History Date:

Wednesday, February 19, 2014

  Actual Average Record
Temperature  
Mean Temperature 65 °F 48 °F  
Max Temperature 71 °F 59 °F 76 °F (1971)
Min Temperature 58 °F 37 °F 9 °F (1905)
Degree Days  
Heating Degree Days 0    
Month to date heating degree days 373  
Since 1 July heating degree days 2341  
Growing Degree Days 15 (Base 50)    
Moisture  
Dew Point 57 °F    
Average Humidity 73    
Maximum Humidity 84    
Minimum Humidity 61    
Precipitation  
Precipitation 0.00 in 0.18 in 2.92 in (1991)
Month to date precipitation 3.11 3.39  
Year to date precipitation 6.16 7.91  
Sea Level Pressure  
Sea Level Pressure 30.04 in    
Wind  
Wind Speed 8 mph (WSW)    
Max Wind Speed 18 mph    
Max Gust Speed 24 mph    
T = Trace of Precipitation, MM = Missing Value Source: NWS Daily Summary

Daily Weather History Graph

Daily Weather History Graph

Search for Another Location

Airport or City:

Trip Planner

Search our weather history database for the weather conditions in past years. The results will help you decide how hot, cold, wet, or windy it might be!

Date:

Astronomy

Feb. 19, 2014 Rise Set
Actual Time 6:23 AM CST 5:31 PM CST
Civil Twilight 5:58 AM CST 5:56 PM CST
Nautical Twilight 5:29 AM CST 6:25 PM CST
Astronomical Twilight 5:00 AM CST 6:54 PM CST
Moon 10:07 PM CST (2/19) 8:43 AM CST (2/19)
Length of Visible Light 11h 58m
Length of Day
11h 08m
Waning Gibbous, 79% of the Moon is Illuminated
Feb 19
Waning Gibbous
Feb 22
Last Quarter
Mar 1
New
Mar 8
First Quarter
Mar 16
Full

Hourly Weather History & Observations

Time (CST) Temp. Dew Point Humidity Pressure Visibility Wind Dir Wind Speed Gust Speed Precip Events Conditions
12:39 AM 63.0 °F 57.0 °F 81% 30.05 in - WSW 13.8 mph 23.0 mph N/A   Mostly Cloudy
12:53 AM 63.0 °F 57.0 °F 81% 30.05 in - WSW 13.8 mph - N/A   Overcast
1:53 AM 63.0 °F 57.9 °F 84% 30.04 in - SW 13.8 mph - N/A   Overcast
2:53 AM 63.0 °F 57.0 °F 81% 30.03 in - SW 12.7 mph 23.0 mph N/A   Overcast
3:53 AM 63.0 °F 57.0 °F 81% 30.04 in - SW 15.0 mph - N/A   Overcast
4:53 AM 63.0 °F 55.9 °F 78% 30.04 in - SW 10.4 mph - N/A   Overcast
5:53 AM 62.1 °F 57.0 °F 84% 30.05 in - WSW 9.2 mph - N/A   Overcast
6:38 AM 62.1 °F 57.0 °F 84% 30.07 in - SW 10.4 mph - N/A   Overcast
6:53 AM 62.1 °F 57.0 °F 84% 30.06 in - SW 10.4 mph - N/A   Overcast
7:13 AM 62.1 °F 57.0 °F 84% 30.08 in - SW 11.5 mph - N/A   Overcast
7:53 AM 63.0 °F 57.0 °F 81% 30.07 in - SW 13.8 mph - N/A   Overcast
8:44 AM 64.0 °F 57.0 °F 78% 30.09 in - WSW 16.1 mph - N/A   Overcast
8:53 AM 64.0 °F 57.0 °F 78% 30.08 in - SW 12.7 mph - N/A   Overcast
9:53 AM 64.9 °F 57.0 °F 75% 30.08 in - SW 12.7 mph 18.4 mph N/A   Overcast
10:53 AM 64.9 °F 57.0 °F 75% 30.08 in - SW 12.7 mph - N/A   Overcast
11:40 AM 66.9 °F 57.0 °F 70% 30.07 in - SW 11.5 mph - N/A   Overcast
11:53 AM 66.9 °F 57.0 °F 70% 30.06 in - SW 11.5 mph - N/A   Overcast
12:15 PM 66.9 °F 57.0 °F 70% 30.05 in - WSW 9.2 mph - N/A   Overcast
12:53 PM 66.9 °F 57.0 °F 70% 30.03 in - West 5.8 mph - N/A   Overcast
1:49 PM 68.0 °F 55.4 °F 64% 30.03 in - WSW 8.1 mph - N/A   Overcast
1:53 PM 68.0 °F 55.9 °F 65% 30.02 in - WNW 4.6 mph - N/A   Overcast
2:14 PM 66.9 °F 57.0 °F 70% 30.02 in - West 4.6 mph - N/A   Overcast
2:53 PM 69.1 °F 57.0 °F 65% 30.01 in - Variable 3.5 mph - N/A   Overcast
3:53 PM 70.0 °F 55.9 °F 61% 30.01 in - Calm Calm - N/A   Overcast
4:53 PM 70.0 °F 55.9 °F 61% 30.01 in - Calm Calm - N/A   Mostly Cloudy
5:53 PM 63.0 °F 55.9 °F 78% 30.02 in - Calm Calm - N/A   Clear
6:53 PM 60.1 °F 55.0 °F 83% 30.04 in - ENE 3.5 mph - N/A   Partly Cloudy
7:53 PM 60.1 °F 55.0 °F 83% 30.03 in - NE 3.5 mph - N/A   Clear
8:53 PM 61.0 °F 55.9 °F 83% 30.03 in - NE 5.8 mph - N/A   Mostly Cloudy
9:53 PM 60.1 °F 55.9 °F 86% 30.02 in - NNE 6.9 mph - N/A   Clear
10:53 PM 60.1 °F 55.9 °F 86% 30.01 in - NE 6.9 mph - N/A   Clear
11:53 PM 59.0 °F 55.0 °F 87% 30.01 in - NE 4.6 mph - N/A   Clear